Weather History for Lamar, CO

Change the Weather History Date:

Monday, November 22, 2010

  Actual Average Record
Temperature  
Mean Temperature 36 °F 37 °F  
Max Temperature 57 °F 53 °F 82 °F (1998)
Min Temperature 14 °F 21 °F -2 °F (1975)
Degree Days  
Heating Degree Days 29 28  
Month to date heating degree days 488 511  
Since 1 July heating degree days 792 978  
Cooling Degree Days 0 0  
Month to date cooling degree days 0 0  
Year to date cooling degree days 1451 1121  
Moisture  
Dew Point 14 °F    
Average Humidity 53    
Maximum Humidity 96    
Minimum Humidity 10    
Precipitation  
Precipitation 0.00 in 0.00 in 0.33 in (1937)
Month to date precipitation T 0.32  
Year to date precipitation 11.43 14.74  
Snow  
Snow 0.00 in - - ()
Month to date snowfall 0.0  
Snow Depth 0.00 in    
Sea Level Pressure  
Sea Level Pressure 29.80 in    
Wind  
Wind Speed 10 mph (WNW)    
Max Wind Speed 33 mph    
Max Gust Speed 41 mph    
Visibility 7 miles    
Events Fog    
T = Trace of Precipitation, MM = Missing Value Source: NWS Daily Summary

Daily Weather History Graph

Daily Weather History Graph

Search for Another Location

Airport:

Trip Planner

Search our weather history database for the weather conditions in past years. The results will help you decide how hot, cold, wet, or windy it might be!

Date:

Astronomy

Nov. 22, 2010 Rise Set
Actual Time 6:39 AM MST 4:34 PM MST
Civil Twilight 6:10 AM MST 5:02 PM MST
Nautical Twilight 5:38 AM MST 5:35 PM MST
Astronomical Twilight 5:06 AM MST 6:06 PM MST
Moon 5:19 PM MST (11/22) 7:41 AM MST (11/22)
Length of Visible Light 10h 52m
Length of Day
9h 55m
Full, 99% of the Moon is Illuminated
Nov 22
Full
Nov 28
Last Quarter
Dec 5
New
Dec 13
First Quarter
Dec 21
Full

Hourly Weather History & Observations

Time (MST) Temp. Windchill Dew Point Humidity Pressure Visibility Wind Dir Wind Speed Gust Speed Precip Events Conditions
12:53 AM 50.0 °F - 18.0 °F 28% 29.48 in 10.0 mi SSW 18.4 mph - N/A   Clear
1:53 AM 39.9 °F 32.9 °F 17.1 °F 40% 29.54 in 10.0 mi SSW 11.5 mph - N/A   Clear
2:53 AM 37.9 °F 29.2 °F 21.0 °F 51% 29.60 in 10.0 mi NNW 15.0 mph 26.5 mph N/A   Clear
3:00 AM 35.6 °F 26.6 °F 21.2 °F 56% 29.67 in 10.0 mi NNW 13.8 mph - N/A   Clear
3:53 AM 28.9 °F 23.9 °F 21.9 °F 75% 29.68 in 10.0 mi North 4.6 mph - N/A   Clear
4:53 AM 25.0 °F 19.3 °F 21.0 °F 85% 29.75 in 10.0 mi ENE 4.6 mph - N/A   Clear
5:53 AM 23.0 °F 18.4 °F 21.0 °F 92% 29.79 in 10.0 mi NE 3.5 mph - N/A   Clear
6:53 AM 17.1 °F - 15.1 °F 92% 29.80 in 7.0 mi Calm Calm - N/A   Partly Cloudy
7:07 AM 19.4 °F - 15.8 °F 86% 29.78 in 3.0 mi Calm Calm - N/A   Mostly Cloudy
7:14 AM 19.4 °F - 17.6 °F 93% 29.78 in 2.0 mi Calm Calm - N/A   Mostly Cloudy
7:22 AM 21.2 °F - 19.4 °F 93% 29.79 in 4.0 mi Calm Calm - N/A   Overcast
7:29 AM 21.2 °F - 19.4 °F 93% 29.80 in 1.8 mi Calm Calm - N/A   Overcast
7:34 AM 21.2 °F - 21.2 °F 100% 29.80 in 1.0 mi Calm Calm - N/A   Overcast
7:41 AM 23.0 °F - 21.2 °F 93% 29.80 in 1.5 mi Calm Calm - N/A   Overcast
7:44 AM 23.0 °F 18.4 °F 21.2 °F 93% 29.80 in 3.0 mi NNW 3.5 mph - N/A   Overcast
7:47 AM 24.8 °F - 21.2 °F 86% 29.80 in 1.0 mi Calm Calm - N/A   Overcast
7:53 AM 24.1 °F 18.2 °F 23.0 °F 96% 29.82 in 0.2 mi North 4.6 mph - N/A Fog Light Freezing Fog
8:53 AM 26.1 °F 21.9 °F 25.0 °F 96% 29.81 in 0.5 mi NNW 3.5 mph - N/A Fog Light Freezing Fog
9:01 AM 26.6 °F 22.6 °F 24.8 °F 93% 29.81 in 1.5 mi NE 3.5 mph - N/A   Overcast
9:04 AM 26.6 °F - 24.8 °F 93% 29.81 in 3.0 mi Calm Calm - N/A   Overcast
9:34 AM 30.2 °F - 26.6 °F 86% 29.81 in 10.0 mi Calm Calm - N/A   Scattered Clouds
9:53 AM 32.0 °F - 26.1 °F 79% 29.80 in 10.0 mi Calm Calm - N/A   Clear
10:53 AM 45.0 °F - 24.1 °F 44% 29.76 in 10.0 mi Calm Calm - N/A   Clear
11:53 AM 50.0 °F - 19.9 °F 31% 29.72 in 10.0 mi Variable 5.8 mph - N/A   Clear
12:53 PM 57.0 °F - 3.0 °F 11% 29.69 in 10.0 mi West 20.7 mph 31.1 mph N/A   Clear
1:53 PM 55.9 °F - 1.0 °F 11% 29.72 in 10.0 mi West 26.5 mph 33.4 mph N/A   Clear
2:53 PM 54.0 °F - -0.9 °F 11% 29.75 in 10.0 mi WSW 27.6 mph 40.3 mph N/A   Clear
3:53 PM 52.0 °F - -4.0 °F 10% 29.82 in 10.0 mi WSW 23.0 mph 34.5 mph N/A   Clear
4:53 PM 46.9 °F - -4.0 °F 12% 29.87 in 10.0 mi WSW 18.4 mph - N/A   Clear
5:53 PM 37.9 °F 30.9 °F -4.0 °F 17% 29.93 in 10.0 mi WSW 10.4 mph - N/A   Clear
6:53 PM 37.0 °F 29.8 °F -2.9 °F 18% 29.99 in 10.0 mi WSW 10.4 mph - N/A   Clear
7:53 PM 28.0 °F - -0.9 °F 29% 30.00 in 10.0 mi North - - N/A   Clear
8:53 PM 24.1 °F 15.2 °F -0.9 °F 34% 30.03 in 9.0 mi WSW 8.1 mph - N/A   Clear
9:53 PM 23.0 °F 12.4 °F -0.9 °F 35% 30.04 in 10.0 mi SSW 10.4 mph - N/A   Clear
10:53 PM 19.0 °F - -2.0 °F 40% 30.03 in 10.0 mi Calm Calm - N/A   Clear
11:53 PM 16.0 °F 5.3 °F -2.0 °F 45% 30.04 in 10.0 mi SW 8.1 mph - N/A   Clear